Location: Unspecified
(0.0000°N, 0.0000°E)
Time: 11:12:48
(UTC+00:00)

AO-7 - Visible Passes

Search period start: 10 December 2019 00:00
Search period end: 20 December 2019 00:00
Orbit: 1439 x 1459 km, 101.8° (Epoch: 10 December)

Date Brightness Start Highest point End Pass type
(mag) Time Alt. Az. Time Alt. Az. Time Alt. Az.
10 Dec ? 02:18:49 17° ENE 02:23:39 30° ESE 02:30:34 10° SSE visible
10 Dec ? 04:13:45 33° NW 04:16:00 38° WNW 04:23:33 10° SW visible
11 Dec ? 03:12:55 41° NNE 03:16:19 77° ESE 03:24:41 10° S visible
11 Dec ? 05:07:50 12° WNW 05:08:35 12° WNW 05:11:37 10° W visible
12 Dec ? 02:12:03 16° ENE 02:16:41 26° ESE 02:23:13 10° SSE visible
12 Dec ? 04:06:58 37° NW 04:09:01 43° WNW 04:16:49 10° SW visible
13 Dec ? 03:06:07 41° NE 03:09:21 68° ESE 03:17:39 10° S visible
13 Dec ? 05:01:02 15° WNW 05:01:38 15° WNW 05:05:51 10° WSW visible
14 Dec ? 02:05:15 15° ENE 02:09:43 22° ESE 02:15:46 10° SSE visible
14 Dec ? 04:00:10 43° NW 04:02:03 49° WNW 04:10:02 10° SW visible
15 Dec ? 02:59:18 40° NE 03:02:22 60° ESE 03:10:35 10° S visible
15 Dec ? 04:54:13 17° WNW 04:54:41 17° WNW 04:59:45 10° WSW visible
16 Dec ? 01:58:26 13° ENE 02:02:45 19° ESE 02:08:14 10° SSE visible
16 Dec ? 03:53:21 48° NW 03:55:04 56° WNW 04:03:13 10° SSW visible
17 Dec ? 02:52:28 38° NE 02:55:23 53° ESE 03:03:27 10° S visible
17 Dec ? 04:47:23 20° WNW 04:47:44 20° WNW 04:53:27 10° WSW visible
18 Dec ? 01:51:35 11° ENE 01:55:48 16° ESE 02:00:33 10° SE visible
18 Dec ? 03:46:31 54° NNW 03:48:06 63° WNW 03:56:21 10° SSW visible
19 Dec ? 02:45:38 36° ENE 02:48:25 47° ESE 02:56:18 10° S visible
19 Dec ? 04:40:33 24° WNW 04:40:46 24° WNW 04:47:02 10° WSW visible
